Weather in Karterados

Greece     36°24′37″N   25°26′26″E
temp.,
°C
wind,
m/s
gust,
m/s
humid.,
%
clouds,
%
prec.,
mm/h
press.,
hPa
HPBL,
m
19 april, mon
mon1900:00+17sse4482100 0.0 101529
03:00+18sse4478100 0.0 101330
06:00+17wsw4483100 0.0 101342
09:00+16w6986100 0.4 1014164
12:00+17w10137996 0.0 1014341
15:00+16wnw10147795 0.0 1013613
18:00+16w141676100 0.0 1012608
21:00+16w1316740 0.0 1014784
20 april, tue
tue2000:00+16w1314760 0.0 1014874
03:00+15w1314770 0.0 1013991
06:00+15w1314730 0.0 1013868
09:00+15w1112710 0.0 1015856
12:00+16w1011690 0.0 1016969
15:00+16wnw99680 0.0 1016846
18:00+16wnw56650 0.0 1016621
21:00+16w66715 0.0 1017662
21 april, wed
wed2100:00+16w66730 0.0 1018634
03:00+16w55740 0.0 1017499
06:00+16w22730 0.0 1017301
09:00+16w22724 0.0 1018281
12:00+16nw2267100 0.0 1019341
15:00+17nw226270 0.0 1020370
18:00+17wnw33610 0.0 1019444
21:00+16w33727 0.0 1020231
22 april, thu
thu2200:00+16w4472100 0.0 1020312
03:00+16wnw33664 0.0 1020272
06:00+16nw116399 0.0 1020157
09:00+16nw11625 0.0 1021143
12:00+16w11585 0.0 1022167
15:00+17nw12535 0.0 1021252
18:00+17n11515 0.0 1020218
21:00+17n11684 0.0 102111
23 april, fri
fri2300:00+17wnw116645 0.0 102011
03:00+17nnw2261100 0.0 101826
06:00+17nne22645 0.0 101834
09:00+17ne446498 0.0 101876
12:00+17ne3464100 0.0 1018100
15:00+18n3358100 0.0 1018118
18:00+18nne5668100 0.0 1018166
21:00+17nne71067100 0.0 1018233